TimeMST,TemperatureF,Dew PointF,Humidity,Sea Level PressureIn,VisibilityMPH,Wind Direction,Wind SpeedMPH,Gust SpeedMPH,PrecipitationIn,Events,Conditions,WindDirDegrees,DateUTC
12:53 AM,57.9,39.9,51,29.69,10.0,SSE,16.1,-,N/A,,Mostly Cloudy,160,2012-11-09 07:53:00
1:53 AM,57.0,41.0,55,29.66,10.0,SSE,13.8,23.0,0.00,,Mostly Cloudy,150,2012-11-09 08:53:00
2:53 AM,57.9,41.0,53,29.65,10.0,South,17.3,26.5,N/A,,Mostly Cloudy,170,2012-11-09 09:53:00
3:53 AM,57.9,39.9,51,29.63,10.0,South,15.0,25.3,N/A,,Scattered Clouds,190,2012-11-09 10:53:00
4:53 AM,57.9,39.9,51,29.63,10.0,SSE,16.1,27.6,N/A,,Overcast,160,2012-11-09 11:53:00
5:53 AM,57.0,39.9,53,29.62,10.0,SSE,20.7,29.9,N/A,,Overcast,150,2012-11-09 12:53:00
6:53 AM,55.9,39.0,53,29.62,10.0,Variable,4.6,16.1,N/A,,Overcast,0,2012-11-09 13:53:00
7:53 AM,57.0,39.0,51,29.62,10.0,South,10.4,20.7,N/A,,Overcast,180,2012-11-09 14:53:00
8:53 AM,59.0,39.0,48,29.60,10.0,SSE,18.4,24.2,N/A,,Overcast,160,2012-11-09 15:53:00
9:53 AM,63.0,39.9,43,29.58,10.0,South,21.9,31.1,N/A,,Mostly Cloudy,170,2012-11-09 16:53:00
10:53 AM,66.0,39.9,38,29.55,10.0,South,18.4,27.6,N/A,,Mostly Cloudy,170,2012-11-09 17:53:00
11:53 AM,66.9,30.9,26,29.51,10.0,SSW,19.6,32.2,N/A,,Partly Cloudy,210,2012-11-09 18:53:00
12:53 PM,66.9,30.0,25,29.47,9.0,SSW,20.7,31.1,N/A,,Scattered Clouds,210,2012-11-09 19:53:00
1:53 PM,66.0,30.0,26,29.46,10.0,SW,15.0,26.5,N/A,,Partly Cloudy,230,2012-11-09 20:53:00
2:53 PM,64.0,32.0,30,29.45,4.0,SSW,21.9,39.1,N/A,,Haze,210,2012-11-09 21:53:00
3:53 PM,62.1,33.1,34,29.46,10.0,SW,12.7,25.3,N/A,,Clear,220,2012-11-09 22:53:00
4:53 PM,60.1,28.0,30,29.46,10.0,SSW,20.7,33.4,N/A,,Clear,210,2012-11-09 23:53:00
5:53 PM,57.9,30.0,35,29.48,10.0,SSW,11.5,26.5,N/A,,Clear,210,2012-11-10 00:53:00
6:53 PM,55.0,30.9,40,29.53,10.0,SSW,13.8,20.7,N/A,,Clear,210,2012-11-10 01:53:00
7:53 PM,54.0,33.1,45,29.54,10.0,SW,5.8,16.1,N/A,,Partly Cloudy,220,2012-11-10 02:53:00
8:53 PM,45.0,30.9,58,29.59,10.0,WNW,11.5,18.4,N/A,,Mostly Cloudy,290,2012-11-10 03:53:00
9:53 PM,44.1,27.0,51,29.60,10.0,WNW,13.8,24.2,N/A,,Overcast,300,2012-11-10 04:53:00
10:53 PM,44.1,27.0,51,29.60,10.0,West,12.7,23.0,N/A,,Overcast,280,2012-11-10 05:53:00
11:53 PM,44.1,21.9,42,29.60,10.0,WNW,11.5,26.5,N/A,,Overcast,290,2012-11-10 06:53:00